[[{"header":{"parameterUnit":"m.s-1","parameterCategory":2,"la1":30.2992,"la2":30.254,"lo1":-89.0895,"lo2":-89.0443,"dy":0.0025,"dx":0.0025,"nx":19,"ny":19,"refTime":"2026-05-07T09:00:00:Z","depth":"0","parameterNumber":2,"parameterNumberName":"U-component_of_CURRENTS"},"data":[0,0,0,0.3224,0.3225,0.3248,0.3248,0.3317,0.3318,0,0,0,0,0,0,0,0,0,0,0,0.3203,0.3203,0.3224,0.3225,0.3248,0.3248,0.3316,0.3318,0,0,0,0,0,0,0,0,0,0,0,0.3203,0.3203,0.3204,0.3226,0.3248,0.3248,0.3316,0.3284,0,0,0,0,0,0,0,0,0,0,0.3255,0.3234,0.3203,0.3204,0.3226,0.3248,0.3248,0.3282,0.3286,0.3324,0,0.3332,0,0.3344,0.3325,0.3325,0,0,0,0.3205,0.323,0.3247,0.3204,0.3226,0.3249,0.3232,0.3284,0.3289,0.333,0.3333,0.3336,0.3345,0.3326,0.3326,0.355,0.3551,0,0,0.3204,0.3198,0.3243,0.325,0.3241,0.3232,0.3233,0.3286,0.329,0.3333,0.3337,0.3346,0.3326,0.3327,0.3548,0.355,0,0,0,0.3214,0.3197,0.321,0.3247,0.3258,0.3233,0.3235,0.3287,0.3295,0.3338,0.3347,0.3327,0.3328,0.3547,0.3549,0.3659,0,0,0,0.3212,0.3205,0.321,0.3206,0.3257,0.3269,0.3234,0.329,0.3297,0.3346,0.3327,0.3329,0.3545,0.3548,0.3652,0.3718,0,0,0,0.32,0.3204,0.321,0.3206,0.3227,0.3268,0.3276,0.3291,0.3304,0.3325,0.333,0.3543,0.3547,0.3646,0.3707,0.3831,0,0,0,0.3187,0.3217,0.321,0.3254,0.3227,0.3311,0.3276,0.3332,0.3358,0.3328,0.3545,0.3549,0.3644,0.3701,0.3824,0.3758,0.3786,0,0,0.3222,0.3221,0.3251,0.3247,0.3331,0.3306,0.3425,0.3436,0.3433,0.3522,0.3527,0.3654,0.3707,0.3829,0.3981,0.4003,0,0,0,0.3262,0.3284,0.331,0.3353,0.3401,0.348,0.3494,0.3547,0.364,0.3471,0.3703,0.3734,0.3807,0.3753,0.3772,0.3681,0.3567,0.3566,0.3566,0.3315,0.3339,0.3399,0.3448,0.3516,0.3614,0.3702,0.3783,0.3746,0.3835,0.3858,0.4077,0.4022,0.4035,0.3943,0.3889,0.3889,0.389,0.389,0.3386,0.3423,0.347,0.3531,0.3625,0.3736,0.3918,0.3947,0.4133,0.4049,0.4113,0.3915,0.4061,0.3956,0.3898,0.3896,0.3895,0.3895,0.3894,0.3422,0.344,0.3464,0.3562,0.3695,0.382,0.4019,0.4146,0.424,0.4329,0.427,0.4266,0.4144,0.4357,0.4358,0.4359,0.4359,0.436,0.4361,0.3443,0.3469,0.3507,0.3611,0.3675,0.3842,0.4103,0.4244,0.44,0.4421,0.4419,0.4222,0.422,0.4167,0.4374,0.4372,0.437,0.4369,0.4368,0.347,0.3485,0.3541,0.3582,0.3721,0.3809,0.4071,0.4306,0.449,0.4543,0.4409,0.4472,0.4438,0.442,0.4373,0.4623,0.4623,0.4623,0.4623,0.348,0.3499,0.3538,0.3581,0.3685,0.3788,0.3901,0.4114,0.4339,0.4379,0.4467,0.4309,0.4302,0.4251,0.4237,0.4183,0.4378,0.4378,0.4378,0.3481,0.3508,0.3506,0.3549,0.3629,0.3713,0.3701,0.3731,0.4055,0.4361,0.4369,0.4379,0.4135,0.4132,0.403,0.4018,0.392,0,0]},{"header":{"parameterUnit":"m.s-1","parameterCategory":2,"la1":30.2992,"la2":30.254,"lo1":-89.0895,"lo2":-89.0443,"dy":0.0025,"dx":0.0025,"nx":19,"ny":19,"refTime":"2026-05-07T09:00:00:Z","depth":"0","parameterNumber":3,"parameterNumberName":"V-component_of_CURRENTS"},"data":[0,0,0,0.0453,0.0454,0.0476,0.0476,0.0439,0.0438,0,0,0,0,0,0,0,0,0,0,0,0.0437,0.0438,0.0452,0.0454,0.0476,0.0476,0.0439,0.0438,0,0,0,0,0,0,0,0,0,0,0,0.0437,0.0438,0.0438,0.0454,0.0476,0.0476,0.0439,0.0433,0,0,0,0,0,0,0,0,0,0,0.0417,0.0415,0.0438,0.0438,0.0454,0.0476,0.0476,0.0433,0.0433,0.0416,0,0.0432,0,0.0445,0.0436,0.0436,0,0,0,0.0433,0.0415,0.0432,0.0438,0.0455,0.0476,0.046,0.0434,0.0434,0.0416,0.0431,0.0431,0.0445,0.0436,0.0436,0.052,0.0521,0,0,0.0432,0.0425,0.0433,0.0433,0.0475,0.046,0.0461,0.0434,0.0432,0.0431,0.043,0.0444,0.0436,0.0435,0.0518,0.052,0,0,0,0.0442,0.0425,0.0443,0.0434,0.045,0.0461,0.0463,0.0433,0.0443,0.043,0.0444,0.0436,0.0435,0.0517,0.0519,0.0672,0,0,0,0.044,0.0433,0.0443,0.0437,0.0451,0.045,0.0462,0.0445,0.0443,0.0444,0.0435,0.0435,0.0516,0.0518,0.0665,0.0776,0,0,0,0.0434,0.0431,0.0441,0.0437,0.0459,0.0451,0.0459,0.0444,0.0452,0.0436,0.0435,0.0515,0.0518,0.0659,0.0764,0.0853,0,0,0,0.0415,0.0471,0.0441,0.0515,0.0459,0.0546,0.0459,0.0499,0.0499,0.0435,0.0516,0.0519,0.0657,0.0757,0.0846,0.0935,0.0977,0,0,0.0486,0.0479,0.0529,0.0505,0.0601,0.054,0.0641,0.059,0.0531,0.0513,0.0515,0.0668,0.0763,0.0852,0.1094,0.1131,0,0,0,0.0554,0.059,0.0614,0.0661,0.0693,0.0738,0.0694,0.0684,0.0684,0.0547,0.0681,0.0738,0.0787,0.0826,0.0856,0.0704,0.0532,0.0531,0.0531,0.0622,0.0661,0.0756,0.0809,0.0856,0.0874,0.0914,0.0892,0.0798,0.0833,0.087,0.106,0.1103,0.1127,0.097,0.0855,0.0855,0.0856,0.0856,0.0753,0.0831,0.0872,0.0979,0.1019,0.1097,0.1133,0.1094,0.1156,0.104,0.1078,0.0997,0.1169,0.0989,0.0866,0.0865,0.0863,0.0862,0.0862,0.0811,0.0864,0.0921,0.1072,0.1202,0.1253,0.1438,0.1407,0.1327,0.1386,0.1382,0.1379,0.1213,0.1384,0.1385,0.1386,0.1386,0.1387,0.1388,0.0852,0.0921,0.104,0.1189,0.1315,0.1495,0.1636,0.171,0.1698,0.1601,0.16,0.1283,0.1221,0.1191,0.1402,0.1399,0.1397,0.1396,0.1395,0.0968,0.0981,0.1162,0.129,0.1594,0.1876,0.1974,0.2125,0.2112,0.2109,0.1648,0.1694,0.1657,0.1631,0.1612,0.1919,0.1919,0.1919,0.1919,0.1033,0.1056,0.1305,0.1532,0.1825,0.2066,0.2451,0.2511,0.2189,0.1953,0.1776,0.1639,0.1624,0.1573,0.1549,0.1521,0.1798,0.1798,0.1797,0.1127,0.1189,0.1385,0.1601,0.1947,0.2304,0.2689,0.28,0.2195,0.1769,0.1554,0.1559,0.1323,0.1312,0.1194,0.1172,0.1111,0,0]}],[{"header":{"parameterUnit":"m.s-1","parameterCategory":2,"la1":30.2992,"la2":30.254,"lo1":-89.0895,"lo2":-89.0443,"dy":0.0025,"dx":0.0025,"nx":19,"ny":19,"refTime":"2026-05-07T09:00:00:Z","depth":"2","parameterNumber":2,"parameterNumberName":"U-component_of_CURRENTS"},"data":[0,0,0,0.311,0.3112,0.3154,0.3154,0.322,0.3221,0,0,0,0,0,0,0,0,0,0,0,0.3079,0.308,0.311,0.3112,0.3154,0.3154,0.322,0.3221,0,0,0,0,0,0,0,0,0,0,0,0.3079,0.308,0.308,0.3112,0.3154,0.3154,0.3219,0.3178,0,0,0,0,0,0,0,0,0,0,0.3133,0.3121,0.3079,0.308,0.3112,0.3154,0.3154,0.3176,0.3181,0.3212,0,0.3226,0,0.3245,0.3228,0.3228,0,0,0,0.3086,0.3117,0.3129,0.308,0.3113,0.3154,0.3127,0.3179,0.3184,0.3219,0.3227,0.323,0.3247,0.3229,0.3229,0.3445,0.3447,0,0,0.3084,0.3086,0.3125,0.3132,0.3135,0.3126,0.3129,0.3182,0.3193,0.3228,0.3232,0.3248,0.3229,0.323,0.3444,0.3446,0,0,0,0.3094,0.3085,0.3094,0.3129,0.3147,0.3128,0.3131,0.319,0.3194,0.3233,0.3248,0.323,0.3231,0.3442,0.3445,0.3552,0,0,0,0.3092,0.3093,0.3093,0.3095,0.3147,0.3172,0.3139,0.3189,0.3196,0.3248,0.323,0.3232,0.344,0.3443,0.3546,0.3597,0,0,0,0.3075,0.3092,0.3099,0.3095,0.3126,0.3171,0.3176,0.319,0.3207,0.3228,0.3232,0.3439,0.3443,0.354,0.3587,0.3706,0,0,0,0.3071,0.3103,0.3099,0.3148,0.3126,0.3211,0.3176,0.3236,0.3262,0.323,0.3441,0.3444,0.3538,0.3581,0.3699,0.3564,0.3585,0,0,0.3109,0.3108,0.3138,0.3137,0.3218,0.3202,0.332,0.3331,0.3332,0.3415,0.342,0.3548,0.3586,0.3704,0.3781,0.3795,0,0,0,0.315,0.317,0.3196,0.3242,0.3292,0.3367,0.3386,0.344,0.3532,0.3371,0.3594,0.3616,0.3687,0.3592,0.3605,0.3462,0.3462,0.3461,0.3461,0.3204,0.3225,0.3285,0.3328,0.3396,0.3495,0.3578,0.366,0.3633,0.3721,0.3738,0.3949,0.3851,0.3859,0.3775,0.3775,0.3776,0.3776,0.3777,0.3257,0.3286,0.3342,0.3401,0.3495,0.3608,0.378,0.3813,0.3991,0.3919,0.3982,0.3753,0.3878,0.3786,0.3784,0.3783,0.3782,0.3781,0.3781,0.3271,0.3287,0.3321,0.3423,0.3566,0.3691,0.3872,0.3992,0.4093,0.4174,0.4079,0.4074,0.4002,0.4212,0.4213,0.4214,0.4214,0.4215,0.4215,0.3259,0.3298,0.3361,0.347,0.3539,0.3717,0.395,0.4069,0.4193,0.4209,0.4207,0.4096,0.4082,0.403,0.4228,0.4225,0.4224,0.4223,0.4222,0.3269,0.3278,0.3369,0.3424,0.3576,0.3604,0.3881,0.404,0.4219,0.4246,0.4233,0.4228,0.4185,0.4171,0.4122,0.4333,0.4333,0.4333,0.4333,0.3238,0.3274,0.3339,0.3401,0.3482,0.3535,0.3539,0.3642,0.3875,0.3913,0.393,0.3753,0.3759,0.3681,0.3678,0.3614,0.3693,0.3691,0.369,0.3224,0.3262,0.328,0.3346,0.3364,0.3386,0.3196,0.3055,0.3256,0.3655,0.3722,0.4309,0.4089,0.4083,0.3989,0.3975,0.3882,0,0]},{"header":{"parameterUnit":"m.s-1","parameterCategory":2,"la1":30.2992,"la2":30.254,"lo1":-89.0895,"lo2":-89.0443,"dy":0.0025,"dx":0.0025,"nx":19,"ny":19,"refTime":"2026-05-07T09:00:00:Z","depth":"2","parameterNumber":3,"parameterNumberName":"V-component_of_CURRENTS"},"data":[0,0,0,0.0372,0.0373,0.0402,0.0401,0.0359,0.0359,0,0,0,0,0,0,0,0,0,0,0,0.0353,0.0353,0.0372,0.0373,0.0402,0.0401,0.036,0.0359,0,0,0,0,0,0,0,0,0,0,0,0.0353,0.0353,0.0354,0.0374,0.0402,0.0401,0.036,0.0353,0,0,0,0,0,0,0,0,0,0,0.0333,0.0334,0.0353,0.0354,0.0374,0.0402,0.0401,0.0353,0.0353,0.0331,0,0.0347,0,0.0365,0.0357,0.0356,0,0,0,0.0352,0.0334,0.0348,0.0354,0.0375,0.0402,0.0383,0.0353,0.0353,0.0331,0.0347,0.0346,0.0364,0.0356,0.0356,0.0423,0.0424,0,0,0.035,0.0347,0.0348,0.0348,0.0395,0.0382,0.0384,0.0354,0.0354,0.0347,0.0346,0.0363,0.0356,0.0356,0.0422,0.0423,0,0,0,0.036,0.0346,0.0361,0.0349,0.0368,0.0383,0.0386,0.0355,0.0363,0.0345,0.0363,0.0356,0.0355,0.0421,0.0423,0.057,0,0,0,0.0358,0.0354,0.0361,0.0357,0.0369,0.0374,0.0387,0.0364,0.0362,0.0363,0.0356,0.0355,0.042,0.0422,0.0564,0.0659,0,0,0,0.0349,0.0352,0.0361,0.0357,0.0381,0.0375,0.038,0.0364,0.0373,0.0356,0.0355,0.0419,0.0421,0.0558,0.0648,0.0733,0,0,0,0.0335,0.0386,0.0361,0.043,0.0381,0.0462,0.038,0.0418,0.0416,0.0356,0.042,0.0422,0.0556,0.0641,0.0726,0.075,0.0783,0,0,0.04,0.0394,0.0439,0.042,0.0509,0.0455,0.0547,0.0498,0.0442,0.0417,0.0419,0.0566,0.0647,0.0731,0.0891,0.092,0,0,0,0.0462,0.0495,0.0517,0.0563,0.0593,0.0634,0.0594,0.0584,0.0582,0.0456,0.0574,0.0622,0.0669,0.0669,0.0693,0.0434,0.0434,0.0433,0.0433,0.0522,0.0559,0.0649,0.0697,0.0741,0.0758,0.079,0.0769,0.0685,0.0717,0.0747,0.0924,0.0926,0.0944,0.0735,0.0735,0.0736,0.0736,0.0737,0.0637,0.0706,0.0754,0.0853,0.0891,0.0967,0.0991,0.0956,0.1005,0.0902,0.094,0.0832,0.0979,0.0749,0.0746,0.0745,0.0743,0.0742,0.0742,0.0681,0.0729,0.079,0.0939,0.1071,0.1119,0.1281,0.1241,0.1167,0.1216,0.1181,0.1177,0.1019,0.1225,0.1226,0.1227,0.1227,0.1228,0.1228,0.0701,0.0775,0.0904,0.1053,0.1175,0.1357,0.1467,0.1517,0.1475,0.1375,0.1374,0.1088,0.1072,0.1047,0.1241,0.1239,0.1237,0.1236,0.1235,0.0802,0.0807,0.1009,0.1137,0.1431,0.1657,0.176,0.1837,0.1819,0.1792,0.1447,0.1437,0.1394,0.1372,0.1354,0.1616,0.1616,0.1616,0.1616,0.0831,0.0866,0.1122,0.1346,0.1602,0.1797,0.2063,0.2031,0.1833,0.1622,0.1621,0.15,0.1485,0.1437,0.1413,0.139,0.1664,0.1663,0.1663,0.0903,0.0976,0.1175,0.1392,0.1663,0.196,0.2166,0.2107,0.1733,0.166,0.1572,0.163,0.1443,0.1424,0.1332,0.1302,0.1258,0,0]}],[{"header":{"parameterUnit":"m.s-1","parameterCategory":2,"la1":30.2992,"la2":30.254,"lo1":-89.0895,"lo2":-89.0443,"dy":0.0025,"dx":0.0025,"nx":19,"ny":19,"refTime":"2026-05-07T09:00:00:Z","depth":"4","parameterNumber":2,"parameterNumberName":"U-component_of_CURRENTS"},"data":[0,0,0,0.1819,0.1824,0.2074,0.2075,0.2291,0.2292,0,0,0,0,0,0,0,0,0,0,0,0.1742,0.1743,0.1819,0.1824,0.2073,0.2075,0.2291,0.2293,0,0,0,0,0,0,0,0,0,0,0,0.1741,0.1743,0.1745,0.1825,0.2073,0.2075,0.2291,0.2133,0,0,0,0,0,0,0,0,0,0,0.1905,0.1849,0.1742,0.1745,0.1826,0.2073,0.2075,0.2127,0.2143,0.2142,0,0.2182,0,0.2228,0.2303,0.2303,0,0,0,0.1845,0.1837,0.189,0.1745,0.1828,0.2072,0.1967,0.2137,0.2154,0.2162,0.2186,0.2195,0.2231,0.2304,0.2304,0.2445,0.2445,0,0,0.1831,0.1801,0.1878,0.1901,0.1894,0.1959,0.1974,0.2149,0.2172,0.2187,0.22,0.2235,0.2305,0.2306,0.2445,0.2445,0,0,0,0.1778,0.1791,0.1844,0.1891,0.1937,0.1965,0.1984,0.2166,0.218,0.2203,0.2237,0.2306,0.2307,0.2444,0.2445,0.2535,0,0,0,0.177,0.1758,0.1837,0.1824,0.1934,0.207,0.1996,0.2169,0.219,0.2236,0.2306,0.2309,0.2444,0.2445,0.2532,0.2578,0,0,0,0.173,0.1754,0.178,0.1821,0.1917,0.2069,0.2096,0.2175,0.2208,0.2303,0.2309,0.2443,0.2444,0.2529,0.2572,0.2595,0,0,0,0.1693,0.1735,0.178,0.1844,0.1915,0.2036,0.2096,0.2217,0.23,0.2306,0.2444,0.2445,0.2528,0.2569,0.2592,0.2281,0,0,0,0.1716,0.1738,0.1773,0.1818,0.1915,0.2003,0.213,0.227,0.2309,0.2381,0.2387,0.2533,0.2572,0.2594,0.2339,0,0,0,0,0.176,0.1785,0.1822,0.1898,0.1987,0.2115,0.2235,0.2298,0.2441,0.2359,0.2527,0.2548,0.256,0.2368,0.2449,0.2449,0.2449,0.2449,0.2449,0.1712,0.1779,0.1847,0.1947,0.2032,0.2202,0.2323,0.243,0.2456,0.2535,0.2617,0.2692,0.2492,0.2607,0.2607,0.2608,0.2608,0.2608,0.2609,0.1719,0.1754,0.1862,0.1968,0.2102,0.2226,0.243,0.252,0.2691,0.2682,0.2688,0.2471,0.2617,0.2616,0.2614,0.2613,0.2613,0.2612,0.2612,0.167,0.1699,0.1799,0.1939,0.2105,0.2287,0.245,0.2642,0.2765,0.2842,0.2608,0.2746,0.2743,0.2843,0.2843,0.2843,0.2844,0.2844,0.2844,0.1573,0.1665,0.1723,0.1916,0.2007,0.2195,0.2503,0.2619,0.2781,0.2679,0.2871,0.277,0.2762,0.2755,0.2849,0.2848,0.2847,0.2847,0.2847,0.1472,0.1541,0.1587,0.1676,0.1869,0.1995,0.2327,0.2494,0.2576,0.256,0.2567,0.258,0.2513,0.2512,0.2493,0.2514,0.251,0.2506,0,0.137,0.1419,0.1432,0.1488,0.1586,0.1849,0.1937,0.2132,0.2297,0.2195,0.2535,0.2533,0.2543,0.2458,0.2452,0.2422,0,0,0,0.126,0.1294,0.1249,0.1348,0.145,0.1652,0.1941,0.196,0.2245,0.2312,0.2415,0.2439,0.2717,0.2864,0.2792,0.2783,0.2767,0,0]},{"header":{"parameterUnit":"m.s-1","parameterCategory":2,"la1":30.2992,"la2":30.254,"lo1":-89.0895,"lo2":-89.0443,"dy":0.0025,"dx":0.0025,"nx":19,"ny":19,"refTime":"2026-05-07T09:00:00:Z","depth":"4","parameterNumber":3,"parameterNumberName":"V-component_of_CURRENTS"},"data":[0,0,0,0.018,0.0181,0.0207,0.0207,0.0177,0.0176,0,0,0,0,0,0,0,0,0,0,0,0.0168,0.0168,0.018,0.0181,0.0207,0.0207,0.0177,0.0176,0,0,0,0,0,0,0,0,0,0,0,0.0168,0.0168,0.0169,0.0181,0.0207,0.0207,0.0177,0.0172,0,0,0,0,0,0,0,0,0,0,0.0154,0.0153,0.0168,0.0169,0.0181,0.0207,0.0207,0.0172,0.0172,0.0149,0,0.0158,0,0.0169,0.0174,0.0173,0,0,0,0.0175,0.0153,0.0163,0.0169,0.0181,0.0207,0.0193,0.0172,0.0172,0.0149,0.0158,0.0157,0.0168,0.0173,0.0173,0.0154,0.0154,0,0,0.0173,0.0167,0.0163,0.0163,0.0193,0.0192,0.0194,0.0173,0.0171,0.0157,0.0157,0.0168,0.0173,0.0173,0.0154,0.0154,0,0,0,0.0173,0.0166,0.0178,0.0163,0.0175,0.0193,0.0195,0.0172,0.0177,0.0156,0.0168,0.0173,0.0172,0.0154,0.0154,0.0238,0,0,0,0.0172,0.0167,0.0177,0.0173,0.0176,0.0182,0.0195,0.0179,0.0177,0.0168,0.0173,0.0172,0.0154,0.0154,0.0235,0.0302,0,0,0,0.0166,0.0166,0.0171,0.0173,0.0188,0.0183,0.0187,0.0179,0.0183,0.0173,0.0172,0.0153,0.0154,0.0233,0.0296,0.0309,0,0,0,0.0155,0.0168,0.0171,0.0192,0.0187,0.0217,0.0188,0.0201,0.0198,0.0173,0.0154,0.0154,0.0232,0.0293,0.0306,0.033,0,0,0,0.0167,0.0169,0.0183,0.0187,0.0226,0.0213,0.0243,0.0224,0.019,0.0154,0.0155,0.0236,0.0296,0.0308,0.0344,0,0,0,0,0.0184,0.0201,0.021,0.0237,0.025,0.028,0.026,0.0247,0.0234,0.019,0.0218,0.0253,0.0258,0.0262,0.0155,0.0155,0.0155,0.0155,0.0155,0.0182,0.0211,0.0255,0.0295,0.0312,0.0322,0.0337,0.0314,0.0266,0.0272,0.0307,0.0359,0.0365,0.0272,0.0273,0.0273,0.0273,0.0274,0.0274,0.0227,0.027,0.0311,0.0371,0.04,0.0429,0.0427,0.0407,0.0409,0.0362,0.0361,0.0333,0.0282,0.028,0.0279,0.0278,0.0277,0.0277,0.0277,0.0247,0.0279,0.0325,0.0424,0.0497,0.0521,0.0599,0.0566,0.0504,0.0522,0.0486,0.0413,0.0421,0.0504,0.0505,0.0505,0.0505,0.0506,0.0506,0.0251,0.0303,0.0385,0.0487,0.0568,0.0662,0.0706,0.0711,0.0639,0.0603,0.0546,0.0436,0.0429,0.0433,0.0511,0.051,0.051,0.0509,0.0509,0.0291,0.0312,0.0436,0.0526,0.0708,0.078,0.0824,0.0809,0.0796,0.0742,0.0621,0.0614,0.0586,0.0575,0.0583,0.0709,0.0709,0.071,0,0.0306,0.0328,0.0489,0.0638,0.0788,0.0859,0.0904,0.0892,0.0786,0.0771,0.0759,0.0625,0.0618,0.0584,0.0575,0.0585,0,0,0,0.0335,0.0386,0.05,0.0655,0.0833,0.0889,0.0919,0.0908,0.0798,0.08,0.0726,0.0722,0.063,0.0528,0.0466,0.0457,0.0461,0,0]}]]